Location: Prague
(50.0830°N, 14.4670°E)
Time: 23:08:42
(UTC+01:00)

BlueWalker 3 - Pass Details

Date: 08 December 2022
Orbit: 499 x 517 km, 53.2° (Epoch: 04 February)

Event Time Altitude Azimuth Distance (km) Brightness Sun altitude
Rises 16:50:46 0° 288° (WNW) 2,633 6.4 -7.8°
Reaches altitude 10° 16:53:00 10° 291° (WNW) 1,742 5.3 -8.1°
Maximum altitude 16:56:55 66° 15° (NNE) 562 2.0 -8.7°
Drops below altitude 10° 17:00:48 10° 98° (E) 1,725 4.1 -9.2°
Enters shadow 17:01:08 - 99° (E) 1,858 4.3 -9.3°
